Home > Weather > Angers > Past weeks

Flag for France Past Weather in Angers, Pays de la Loire, France — Yesterday and Last 2 Weeks

Now
68 °F

Passing clouds.


Feels Like: 68 °F
Forecast: 61 / 74 °F
Wind: 9 mph from Southwest

Location: Le Mans Airport

Current Time: Jul 29, 2016 at 12:27:59 AM

Latest Report: Jul 29, 2016 at 12:00 AM


Visibility: N/A

Pressure: 30.04 "Hg

Humidity: 73%

Dew Point: 59 °F

Location of AngersLocation

Past Weather in Angers — Graph

°F

Angers Temperature Yesterday

Maximum temperature yesterday: 79 °F (at 4:00 PM)
Minimum temperature yesterday: 64 °F (at 2:00 AM)
Average temperature yesterday: 70 °F

High & Low Weather Summary for the Past Weeks

 TemperatureHumidityPressure
High99 °F (Jul 19, 3:30 PM)94% (Jul 14, 4:00 AM)30.39 "Hg (Jul 14, 4:00 AM)
Low45 °F (Jul 15, 5:30 AM)18% (Jul 19, 4:00 PM)29.89 "Hg (Jul 19, 6:30 PM)
Average71 °F60%30.14 "Hg
* Reported Jul 13 11:00 PM — Jul 28 11:00 PM, Angers, Weather by CustomWeather, © 2016

Note: Actual official high and low records may vary slightly from our data, if they occured in-between our weather recording intervals... More about our weather records

Advertising

Angers Weather History for the Previous 24 Hours

Scroll right to see more
 ConditionsComfort  
Time TempWeatherWind HumidityBarometerVisibility
11:00 PM
Thu, Jul 28
68 °FPassing clouds.7 mph73%30.04 "HgN/A
10:30 PM70 °FPassing clouds.8 mph69%30.04 "HgN/A
10:00 PM70 °FPassing clouds.9 mph69%30.04 "HgN/A
9:30 PM73 °FPassing clouds.9 mph61%30.04 "HgN/A
9:00 PM73 °FPassing clouds.8 mph61%30.04 "HgN/A
8:30 PM75 °FPartly sunny.8 mph57%30.04 "HgN/A
8:00 PM77 °FOvercast.9 mph51%30.04 "HgN/A
7:30 PM75 °FMore clouds than sun.8 mph54%30.04 "HgN/A
7:00 PM77 °FPassing clouds.8 mph51%30.04 "HgN/A
6:30 PM77 °FPassing clouds.9 mph51%30.04 "HgN/A
6:00 PM77 °FOvercast.8 mph51%30.04 "HgN/A
5:30 PM77 °FOvercast.9 mph47%30.04 "HgN/A
5:00 PM79 °FPartly sunny.7 mph45%30.04 "HgN/A
4:30 PM79 °FScattered clouds.10 mph45%30.04 "HgN/A
4:00 PM79 °FPartly sunny.12 mph45%30.07 "HgN/A
3:30 PM77 °FPassing clouds.8 mph47%30.07 "HgN/A
3:00 PM77 °FWarm.8 mph51%30.07 "HgN/A
2:30 PM73 °FOvercast.8 mph57%30.09 "HgN/A
2:00 PM73 °FOvercast.10 mph61%30.09 "HgN/A
1:30 PM73 °FBroken clouds.7 mph57%30.09 "HgN/A
1:00 PM72 °FPartly sunny.9 mph65%30.09 "HgN/A
12:30 PM70 °FMostly cloudy.6 mph69%30.09 "HgN/A
12:00 PM70 °FMostly cloudy.8 mph69%30.09 "HgN/A
11:30 AM70 °FBroken clouds.6 mph69%30.09 "HgN/A
11:00 AM68 °FPartly sunny.8 mph73%30.09 "HgN/A
10:30 AM68 °FMostly cloudy.N/A73%30.09 "HgN/A
10:00 AM68 °FBroken clouds.6 mph83%30.09 "HgN/A
9:30 AM66 °FPartly sunny.7 mph88%30.09 "HgN/A
9:00 AM64 °FMostly cloudy.5 mph94%30.09 "HgN/A
8:30 AM64 °FLow clouds.6 mph94%30.09 "HgN/A
8:00 AM64 °FBroken clouds.5 mph94%30.09 "HgN/A
7:30 AM64 °FPartly cloudy.6 mph94%30.07 "HgN/A
7:00 AM64 °FOvercast.7 mph94%30.07 "HgN/A
6:30 AM64 °FDrizzle. Mostly cloudy.7 mph94%30.07 "HgN/A
6:00 AM64 °FDrizzle. Mostly cloudy.3 mph94%30.07 "Hg4 mi
5:30 AM64 °FLight rain. Fog.5 mph94%30.07 "Hg3 mi
5:00 AM64 °FLow clouds.3 mph94%30.07 "Hg6 mi
4:30 AM64 °FDrizzle. Mostly cloudy.5 mph94%30.07 "Hg4 mi
4:00 AM64 °FMostly cloudy.5 mph94%30.09 "Hg4 mi
3:30 AM64 °FMostly cloudy.6 mph94%30.09 "Hg6 mi
3:00 AM64 °FMostly cloudy.2 mph94%30.09 "HgN/A
2:30 AM64 °FDrizzle. Fog.3 mph94%30.09 "Hg3 mi
2:00 AM64 °FLight rain. Fog.3 mph94%30.09 "Hg2 mi
1:30 AM66 °FLight rain. Fog.5 mph88%30.09 "Hg2 mi
1:00 AM68 °FOvercast.8 mph83%30.09 "Hg5 mi
12:30 AM70 °FPassing clouds.8 mph73%30.09 "HgN/A
12:00 AM70 °FOvercast.6 mph73%30.09 "HgN/A
Weather by CustomWeather, © 2016

See weather overviewHow to use our weather pages